TimeIST,TemperatureF,Dew PointF,Humidity,Sea Level PressureIn,VisibilityMPH,Wind Direction,Wind SpeedMPH,Gust SpeedMPH,PrecipitationIn,Events,Conditions,WindDirDegrees,DateUTC
12:00 AM,44.6,41.0,87,29.62,6.2,WSW,10.4,-,N/A,,Partly Cloudy,240,2012-10-02 23:00:00
12:30 AM,44.6,42.8,93,29.62,6.2,WSW,10.4,-,N/A,,Scattered Clouds,240,2012-10-02 23:30:00
1:00 AM,42,40,92,29.64,25,SW,11.2,,,,Scattered Clouds,230,2012-10-03 00:00:00
1:00 AM,42.8,41.0,93,29.62,6.2,SW,10.4,-,N/A,,Partly Cloudy,230,2012-10-03 00:00:00
1:30 AM,42.8,41.0,93,29.62,6.2,SW,11.5,-,N/A,,Partly Cloudy,230,2012-10-03 00:30:00
2:00 AM,41.0,39.2,93,29.62,6.2,SW,9.2,-,N/A,,Mostly Cloudy,230,2012-10-03 01:00:00
2:30 AM,41.0,41.0,100,29.62,6.2,SW,9.2,-,N/A,,Partly Cloudy,230,2012-10-03 01:30:00
3:00 AM,42.8,41.0,93,29.62,6.2,SW,10.4,-,N/A,,Scattered Clouds,230,2012-10-03 02:00:00
3:30 AM,41.0,39.2,93,29.62,6.2,SW,8.1,-,N/A,,Partly Cloudy,230,2012-10-03 02:30:00
4:00 AM,41.0,41.0,100,29.62,6.2,WSW,6.9,-,N/A,,Partly Cloudy,240,2012-10-03 03:00:00
4:30 AM,42.8,41.0,93,29.62,6.2,SW,9.2,-,N/A,,Scattered Clouds,230,2012-10-03 03:30:00
5:00 AM,44.6,42.8,93,29.62,6.2,WSW,12.7,-,N/A,,Partly Cloudy,250,2012-10-03 04:00:00
5:30 AM,44.6,42.8,93,29.62,6.2,WSW,10.4,-,N/A,,Scattered Clouds,250,2012-10-03 04:30:00
6:00 AM,42.8,41.0,93,29.62,6.2,SW,8.1,-,N/A,,Partly Cloudy,230,2012-10-03 05:00:00
6:30 AM,41.0,41.0,100,29.62,6.2,SW,10.4,-,N/A,,Partly Cloudy,230,2012-10-03 05:30:00
7:00 AM,42,40,91,29.64,25,SW,8.9,,,,Scattered Clouds,230,2012-10-03 06:00:00
7:00 AM,41.0,41.0,100,29.62,6.2,SW,9.2,-,N/A,,Partly Cloudy,230,2012-10-03 06:00:00
7:30 AM,41.0,41.0,100,29.62,6.2,SW,9.2,-,N/A,,Partly Cloudy,230,2012-10-03 06:30:00
8:00 AM,41.0,39.2,93,29.62,6.2,SW,9.2,-,N/A,,Partly Cloudy,230,2012-10-03 07:00:00
8:30 AM,44.6,42.8,93,29.62,6.2,WSW,10.4,-,N/A,,Partly Cloudy,240,2012-10-03 07:30:00
9:00 AM,46.4,42.8,87,29.62,6.2,SW,10.4,-,N/A,,Partly Cloudy,230,2012-10-03 08:00:00
9:30 AM,46.4,44.6,93,29.62,6.2,SW,10.4,-,N/A,,Partly Cloudy,220,2012-10-03 08:30:00
10:00 AM,48.2,44.6,87,29.62,6.2,SW,12.7,-,N/A,,Partly Cloudy,220,2012-10-03 09:00:00
10:30 AM,50.0,44.6,82,29.62,6.2,SW,10.4,-,N/A,,Partly Cloudy,230,2012-10-03 09:30:00
11:00 AM,51.8,44.6,76,29.62,6.2,WSW,12.7,-,N/A,,Partly Cloudy,240,2012-10-03 10:00:00
11:30 AM,51.8,42.8,71,29.62,6.2,WSW,13.8,-,N/A,,Partly Cloudy,250,2012-10-03 10:30:00
12:00 PM,53.6,42.8,67,29.62,6.2,WSW,13.8,-,N/A,,Scattered Clouds,250,2012-10-03 11:00:00
12:30 PM,55.4,46.4,72,29.62,6.2,WSW,15.0,-,N/A,,Scattered Clouds,240,2012-10-03 11:30:00
1:00 PM,55,45,59,29.65,31,WSW,15.7,,,,Mostly Cloudy,240,2012-10-03 12:00:00
1:00 PM,55.4,44.6,67,29.62,6.2,WSW,15.0,26.5,N/A,,Mostly Cloudy,240,2012-10-03 12:00:00
1:30 PM,53.6,41.0,62,29.62,6.2,WSW,18.4,-,N/A,,Scattered Clouds,250,2012-10-03 12:30:00
2:00 PM,55.4,42.8,63,29.62,6.2,WSW,15.0,-,N/A,,Scattered Clouds,250,2012-10-03 13:00:00
2:30 PM,51.8,46.4,82,29.62,6.2,West,15.0,-,N/A,,Scattered Clouds,260,2012-10-03 13:30:00
3:00 PM,53.6,41.0,62,29.62,6.2,WSW,18.4,-,N/A,,Scattered Clouds,250,2012-10-03 14:00:00
3:30 PM,51.8,42.8,71,29.62,6.2,WSW,15.0,-,N/A,,Partly Cloudy,250,2012-10-03 14:30:00
4:00 PM,53.6,41.0,62,29.62,6.2,West,18.4,-,N/A,,Partly Cloudy,260,2012-10-03 15:00:00
4:30 PM,53.6,41.0,62,29.62,6.2,WSW,15.0,-,N/A,,Scattered Clouds,250,2012-10-03 15:30:00
5:00 PM,51.8,41.0,67,29.62,6.2,West,11.5,-,N/A,,Partly Cloudy,270,2012-10-03 16:00:00
5:30 PM,51.8,42.8,71,29.62,6.2,West,12.7,-,N/A,,Partly Cloudy,260,2012-10-03 16:30:00
6:00 PM,51.8,42.8,71,29.62,6.2,WSW,11.5,-,N/A,,Scattered Clouds,250,2012-10-03 17:00:00
6:30 PM,50.0,41.0,71,29.62,6.2,West,15.0,-,N/A,,Scattered Clouds,260,2012-10-03 17:30:00
7:00 PM,48,41,69,29.65,31,WSW,11.2,,,,Partly Cloudy,250,2012-10-03 18:00:00
7:00 PM,48.2,41.0,76,29.62,6.2,WSW,10.4,-,N/A,,Partly Cloudy,250,2012-10-03 18:00:00
7:30 PM,44.6,41.0,87,29.62,6.2,SW,9.2,-,N/A,,Partly Cloudy,230,2012-10-03 18:30:00
8:00 PM,44.6,41.0,87,29.62,6.2,WSW,9.2,-,N/A,,Partly Cloudy,240,2012-10-03 19:00:00
8:30 PM,42.8,39.2,87,29.65,6.2,SW,8.1,-,N/A,,Partly Cloudy,230,2012-10-03 19:30:00
9:00 PM,41.0,39.2,93,29.65,6.2,SW,9.2,-,N/A,,Partly Cloudy,230,2012-10-03 20:00:00
9:30 PM,42.8,41.0,93,29.65,6.2,SW,9.2,-,N/A,,Partly Cloudy,230,2012-10-03 20:30:00
10:00 PM,42.8,41.0,93,29.65,6.2,SW,9.2,-,N/A,,Partly Cloudy,230,2012-10-03 21:00:00
10:30 PM,42.8,41.0,93,29.65,6.2,SW,9.2,-,N/A,,Partly Cloudy,230,2012-10-03 21:30:00
11:00 PM,42.8,42.8,100,29.65,6.2,SW,9.2,-,N/A,,Partly Cloudy,230,2012-10-03 22:00:00
11:30 PM,44.6,42.8,93,29.65,6.2,WSW,6.9,-,N/A,,Partly Cloudy,240,2012-10-03 22:30:00